This is the latest recevied weather packets stored in our database for station/object SV9TNF-1. If no packets are shown the sender has not sent any weather packets the latest 10 day(s).
| Time | Temp. | Humidity | Pressure | Rain* | Wind** | Luminosity | Snow |
|---|---|---|---|---|---|---|---|
| 1777606210 | 18.33° C | 48% | 1000.7 hPa | 0 mm | 7.6 m/s, 40° | - | - |
| 1777605910 | 18.33° C | 49% | 1000.7 hPa | 0 mm | 10.73 m/s, 326° | - | - |
| 1777605610 | 18.89° C | 45% | 1000.7 hPa | 0 mm | 11.18 m/s, 320° | - | - |
| 1777605310 | 19.44° C | 40% | 1000.7 hPa | 0 mm | 11.62 m/s, 345° | - | - |
| 1777605010 | 19.44° C | 41% | 1000.7 hPa | 0 mm | 13.41 m/s, 353° | - | - |
| 1777604710 | 19.44° C | 39% | 1000.7 hPa | 0 mm | 11.18 m/s, 338° | - | - |
| 1777604409 | 19.44° C | 44% | 1000.7 hPa | 0 mm | 7.15 m/s, 315° | - | - |
| 1777604109 | 18.89° C | 43% | 1000.7 hPa | 0 mm | 6.26 m/s, 327° | - | - |
| 1777603809 | 19.44° C | 40% | 1000.7 hPa | 0 mm | 9.39 m/s, 314° | - | - |
| 1777603509 | 19.44° C | 37% | 1000.7 hPa | 0 mm | 12.07 m/s, 320° | - | - |
| 1777603209 | 19.44° C | 40% | 1000.7 hPa | 0 mm | 11.18 m/s, 350° | - | - |
| 1777602909 | 18.89° C | 42% | 1000.7 hPa | 0 mm | 10.28 m/s, 105° | - | - |
| 1777602609 | 18.33° C | 43% | 1000.7 hPa | 0 mm | 2.68 m/s, 162° | - | - |
| 1777602309 | 18.33° C | 42% | 1000.7 hPa | 0 mm | 2.68 m/s, 149° | - | - |
| 1777602009 | 18.89° C | 40% | 1000.7 hPa | 0 mm | 7.15 m/s, 316° | - | - |
| 1777601709 | 19.44° C | 39% | 1000.7 hPa | 0 mm | 10.28 m/s, 321° | - | - |
| 1777601409 | 19.44° C | 39% | 1000.7 hPa | 0 mm | 7.6 m/s, 0° | - | - |
| 1777601109 | 19.44° C | 38% | 1000.7 hPa | 0 mm | 6.26 m/s, 330° | - | - |
| 1777600808 | 19.44° C | 38% | 1000.7 hPa | 0 mm | 14.31 m/s, 302° | - | - |
| 1777600509 | 19.44° C | 39% | 1000.7 hPa | 0 mm | 15.65 m/s, 326° | - | - |
| 1777600208 | 19.44° C | 39% | 1000.7 hPa | 0 mm | 14.31 m/s, 12° | - | - |
| 1777599908 | 19.44° C | 39% | 1000.7 hPa | 0 mm | 16.99 m/s, 2° | - | - |
| 1777599608 | 18.89° C | 39% | 1000.7 hPa | 0 mm | 11.62 m/s, 335° | - | - |
| 1777599308 | 18.89° C | 39% | 1000.7 hPa | 0 mm | 12.07 m/s, 323° | - | - |
| 1777599008 | 18.89° C | 39% | 1000.7 hPa | 0 mm | 7.15 m/s, 348° | - | - |
* Rain latest hour (hover to see other rain measurements)
** Current wind speed in m/s (hover to see current wind gust speed)